Weather History for Maxwell AFB, AL

Change the Weather History Date:

Wednesday, May 15, 2013

  Actual Average Record
Temperature  
Mean Temperature 71 °F -  
Max Temperature 86 °F 83 °F 91 °F (1998)
Min Temperature 56 °F 62 °F 51 °F (2002)
Cooling Degree Days 6    
Growing Degree Days 21 (Base 50)    
Moisture  
Dew Point 58 °F    
Average Humidity 64    
Maximum Humidity 91    
Minimum Humidity 36    
Precipitation  
Precipitation 0.00 in - - ()
Sea Level Pressure  
Sea Level Pressure 30.14 in    
Wind  
Wind Speed 3 mph (SSW)    
Max Wind Speed 6 mph    
Max Gust Speed -    
Visibility 10 miles    
Events      
Averages and records for this station are not official NWS values.
T = Trace of Precipitation, MM = Missing Value Source: NWS Daily Summary

Daily Weather History Graph

Daily Weather History Graph

Search for Another Location

Airport:

Trip Planner

Search our weather history database for the weather conditions in past years. The results will help you decide how hot, cold, wet, or windy it might be!

Date:

Astronomy

May. 15, 2013 Rise Set
Actual Time 5:47 AM CDT 7:36 PM CDT
Civil Twilight 5:20 AM CDT 8:03 PM CDT
Nautical Twilight 4:47 AM CDT 8:36 PM CDT
Astronomical Twilight 4:13 AM CDT 9:11 PM CDT
Moon 10:19 AM CDT (5/15) No Moon Set
Length of Visible Light 14h 43m
Length of Day
13h 49m
Waxing Crescent, 27% of the Moon is Illuminated
May 15
Waxing Crescent
May 17
First Quarter
May 24
Full
May 31
Last Quarter
Jun 8
New

Hourly Weather History & Observations

Time (CDT) Temp. Heat Index Dew Point Humidity Pressure Visibility Wind Dir Wind Speed Gust Speed Precip Events Conditions
12:58 AM 63.7 °F - 55.6 °F 75% 30.17 in 10.0 mi SW 4.6 mph - N/A   Clear
1:58 AM 62.4 °F - 55.6 °F 78% 30.17 in 10.0 mi SSW 3.5 mph - N/A   Clear
2:58 AM 60.3 °F - 55.0 °F 83% 30.17 in 10.0 mi South 2.3 mph - N/A   Clear
3:58 AM 59.9 °F - 55.0 °F 84% 30.18 in 10.0 mi SW 1.2 mph - N/A   Clear
4:58 AM 57.2 °F - 54.3 °F 90% 30.19 in 10.0 mi SW 2.3 mph - N/A   Clear
5:58 AM 56.7 °F - 54.0 °F 91% 30.21 in 10.0 mi South 2.3 mph - N/A   Clear
6:58 AM 60.8 °F - 57.4 °F 88% 30.21 in 10.0 mi South 2.3 mph - N/A   Clear
7:58 AM 65.8 °F - 58.6 °F 78% 30.22 in 10.0 mi Variable 3.5 mph - N/A   Clear
8:58 AM 70.2 °F - 59.5 °F 69% 30.23 in 10.0 mi WNW 5.8 mph - N/A   Clear
9:58 AM 74.1 °F - 60.1 °F 61% 30.22 in 10.0 mi SW 3.5 mph - N/A   Clear
10:58 AM 77.9 °F - 60.4 °F 55% 30.22 in 10.0 mi Variable 2.3 mph - N/A   Clear
11:58 AM 80.6 °F 81.5 °F 61.2 °F 51% 30.20 in 10.0 mi SW 5.8 mph - N/A   Clear
12:58 PM 82.2 °F 82.4 °F 59.7 °F 46% 30.17 in 10.0 mi Variable 3.5 mph - N/A   Clear
1:58 PM 84.4 °F 83.8 °F 58.1 °F 41% 30.15 in 10.0 mi Variable 5.8 mph - N/A   Clear
2:58 PM 86.2 °F 84.9 °F 56.3 °F 36% 30.12 in 10.0 mi Variable 3.5 mph - N/A   Clear
3:58 PM 86.2 °F 85.2 °F 57.6 °F 38% 30.09 in 10.0 mi SSE 5.8 mph - N/A   Clear
4:58 PM 85.6 °F 84.8 °F 58.1 °F 39% 30.08 in 10.0 mi Variable 5.8 mph - N/A   Clear
5:58 PM 84.6 °F 84.2 °F 59.2 °F 42% 30.06 in 10.0 mi SW 5.8 mph - N/A   Clear
6:58 PM 80.8 °F 81.4 °F 60.3 °F 49% 30.06 in 10.0 mi SW 2.3 mph - N/A   Clear
7:58 PM 76.6 °F - 61.0 °F 58% 30.06 in 10.0 mi SSW 2.3 mph - N/A   Clear
8:58 PM 74.3 °F - 61.0 °F 63% 30.06 in 10.0 mi SW 2.3 mph - N/A   Clear
9:58 PM 71.6 °F - 61.9 °F 71% 30.06 in 10.0 mi Calm Calm - N/A   Mostly Cloudy
10:58 PM 69.4 °F - 63.7 °F 82% 30.06 in 10.0 mi Calm Calm - N/A   Partly Cloudy
11:58 PM 71.2 °F - 59.4 °F 66% 30.06 in 10.0 mi SW 3.5 mph - N/A   Overcast